Temp
14 15 15 16 15 15 15 15 14 12 11 12 10 9 7 5 6 6 5 6 5 5 5 5 4 4 4 3 3 3 4 3 3 3 3 3 2 2 1 1 1 2 2 1
16 16 15 15 15 15 15 15 9 12 11 11 11 9 9 6 5 6 6 5 5 5 5 4 3 3 2 2 2 1 2 2 2 2 2 2 2 1 -2 -3 -3 -1 -0 -0
16 15 14 14 15 15 14 14 14 13 12 11 10 9 8 5 5 6 6 5 4 3 3 2 2 2 1 -0 -0 1 1 1 1 1 1 1 1 -3 -2 -2 -2 -3 -2 -2
15 14 14 14 14 14 14 13 13 13 12 13 11 13 7 5 4 4 5 3 3 3 2 2 1 -0 -1 -1 -1 -0 0 0 0 1 1 1 -0 -1 -2 -3 -3 -4 -4 -4
14 14 14 14 13 13 13 12 12 13 13 12 13 8 7 5 4 5 4 4 3 3 2 1 1 -0 -0 -1 -1 -2 -1 -0 -0 -0 -0 -0 -1 -2 -2 -3 -3 -4 -5 -5
14 13 13 13 12 12 12 13 13 14 13 11 11 10 6 6 5 4 4 3 3 3 2 1 -0 -0 -1 -1 -1 -2 -3 -2 -1 -1 -1 -2 -3 -4 -4 -4 -4 -4 -4 -4
14 14 13 12 13 13 13 13 13 15 15 15 11 12 4 4 4 3 3 3 2 2 1 0 -0 -0 -1 -2 -1 -2 -2 -2 -2 -2 -3 -4 -4 -4 -4 -4 -4 -4 -4 -4
15 11 12 12 12 11 12 12 13 12 13 14 13 9 3 3 4 3 3 2 2 1 1 -0 -0 -1 -1 -2 -2 -2 -2 -2 -3 -3 -4 -4 -4 -4 -4 -4 -5 -5 -4 -4
14 13 11 11 11 11 11 12 11 11 12 14 10 5 4 3 2 3 2 2 1 0 0 -1 -1 -1 -1 -2 -4 -4 -4 -5 -5 -5 -5 -5 -5 -5 -5 -5 -5 -5 -5 -5
13 13 11 11 10 11 10 10 11 12 12 12 10 7 5 3 2 2 2 1 0 0 -0 -1 -1 -2 -3 -4 -4 -4 -5 -5 -5 -5 -5 -5 -6 -6 -6 -6 -6 -6 -5 -5
11 12 12 11 10 9 9 10 9 10 10 12 12 7 4 4 3 2 1 1 0 -0 -1 -2 -3 -3 -4 -4 -4 -4 -4 -5 -5 -6 -6 -6 -6 -7 -7 -7 -5 -5 -6 -5
10 10 11 11 9 8 9 8 8 9 10 10 10 5 3 4 3 2 1 0 -1 -1 -2 -2 -3 -3 -2 -3 -3 -3 -3 -5 -5 -5 -6 -6 -7 -6 -7 -7 -6 -5 -6 -6
9 10 10 11 8 8 8 8 8 8 8 8 10 6 4 3 2 2 1 -0 -1 -2 -3 -3 -4 -2 -2 -3 -3 -2 -3 -3 -4 -4 -6 -6 -4 -5 -7 -7 -5 -7 -6 -6
8 8 9 10 9 8 8 7 7 8 9 8 7 7 3 3 3 2 0 -0 -2 -3 -4 -4 -2 -2 -2 -2 -2 -3 -3 -3 -4 -6 -6 -6 -5 -6 -6 -6 -5 -5 -6 -6
7 8 8 8 7 8 7 7 7 7 7 7 7 5 3 2 2 1 -0 -2 -2 -3 -4 -3 -2 -3 -3 -2 -2 -3 -3 -3 -4 -6 -6 -6 -5 -6 -5 -6 -6 -5 -5 -5
7 7 8 8 7 7 7 7 7 7 6 6 6 4 2 2 1 -0 -1 -2 -3 -3 -4 -3 -4 -3 -3 -2 -2 -2 -3 -3 -5 -6 -5 -6 -6 -5 -5 -5 -6 -5 -6 -5
7 7 8 5 7 7 7 6 6 6 6 5 4 4 3 2 0 -1 -2 -3 -3 -3 -4 -3 -3 -3 -3 -2 -2 -3 -3 -4 -4 -5 -5 -5 -5 -6 -5 -5 -5 -5 -5 -5
7 7 8 9 8 8 6 5 5 5 5 4 3 2 2 1 -0 -1 -2 -3 -4 -3 -2 -3 -3 -3 -3 -2 -3 -3 -3 -3 -4 -4 -4 -4 -5 -4 -5 -5 -4 -4 -4 -4
6 6 7 8 8 7 6 5 4 4 4 2 2 2 2 -0 -1 -1 -2 -3 -2 -2 -3 -3 -3 -2 -2 -3 -3 -3 -3 -4 -4 -4 -4 -4 -4 -4 -4 -4 -4 -4 -4 -4
6 6 8 8 8 9 5 4 4 4 3 2 1 1 0 -0 1 -2 -3 -2 -3 -3 -3 -3 -2 -2 -3 -3 -3 -4 -4 -4 -4 -4 -4 -4 -5 -5 -4 -4 -4 -4 -5 -4
5 8 7 7 7 6 4 3 3 4 2 1 0 -0 -1 -1 -1 -3 -1 -2 -3 -4 -4 -3 -3 -3 -3 -3 -3 -3 -4 -4 -3 -4 -4 -4 -4 -4 -4 -4 -3 -4 -4 -4
6 7 8 7 8 5 2 3 3 2 1 -0 -1 -1 -2 -2 -4 -2 -3 -4 -4 -5 -5 -3 -3 -3 -3 -3 -3 -3 -4 -4 -4 -4 -4 -4 -4 -4 -4 -4 -4 -4 -4 -4
4 5 5 5 4 3 3 2 2 0 -0 -0 0 1 -0 -3 -3 -2 -4 -5 -5 -5 -5 -4 -3 -3 -4 -4 -4 -4 -4 -4 -4 -4 -4 -4 -4 -4 -4 -4 -4 -6 -5 -4
4 4 5 4 3 2 1 0 -0 0 1 1 1 1 -2 -3 -1 -4 -5 -5 -5 -5 -5 -4 -4 -4 -5 -5 -5 -4 -4 -4 -4 -4 -4 -3 -4 -4 -4 -5 -4 -4 -4 -4
4 4 4 2 2 3 1 1 0 2 2 1 1 0 -1 -2 -2 -3 -4 -4 -5 -5 -5 -4 -4 -5 -4 -5 -4 -4 -4 -3 -4 -4 -4 -4 -4 -5 -5 -4 -4 -3 -3 -3
2 3 2 2 1 2 1 1 1 1 1 1 1 0 -1 -1 -2 -2 -3 -4 -5 -5 -5 -5 -4 -4 -4 -5 -4 -4 -4 -4 -3 -4 -4 -5 -4 -4 -5 -4 -4 -3 -3 -3
Height
3196 3196 3197 3193 3192 3192 3191 3188 3187 3190 3192 3194 3193 3191 3189 3187 3184 3184 3183 3182 3182 3181 3181 3179 3178 3176 3172 3171 3169 3166 3162 3160 3157 3154 3150 3148 3145 3141 3138 3131 3128 3124 3123 3122
3194 3194 3196 3196 3195 3195 3192 3188 3186 3190 3189 3191 3190 3189 3184 3184 3187 3181 3181 3182 3182 3180 3179 3178 3176 3174 3173 3170 3167 3164 3160 3156 3153 3149 3145 3142 3139 3136 3131 3126 3123 3116 3115 3114
3193 3195 3198 3198 3196 3194 3191 3191 3188 3189 3189 3186 3187 3183 3178 3179 3177 3178 3180 3182 3184 3182 3181 3178 3176 3173 3170 3167 3164 3162 3158 3154 3148 3146 3141 3136 3134 3131 3125 3122 3117 3114 3111 3107
3196 3198 3199 3197 3196 3197 3193 3194 3192 3189 3188 3179 3177 3173 3169 3176 3181 3184 3182 3183 3183 3182 3180 3178 3175 3174 3170 3167 3164 3159 3154 3150 3145 3141 3137 3131 3127 3123 3119 3115 3111 3108 3104 3102
3201 3198 3198 3196 3198 3198 3195 3193 3191 3186 3181 3177 3172 3178 3170 3181 3183 3184 3182 3182 3184 3181 3179 3177 3173 3171 3168 3166 3163 3157 3151 3146 3141 3137 3131 3126 3122 3118 3114 3111 3109 3105 3102 3098
3197 3198 3199 3198 3198 3197 3195 3191 3185 3179 3177 3177 3175 3181 3182 3182 3183 3182 3182 3182 3181 3179 3176 3174 3172 3169 3167 3164 3160 3154 3149 3142 3136 3130 3125 3120 3117 3114 3111 3108 3105 3102 3100 3097
3198 3197 3199 3198 3197 3195 3193 3189 3184 3172 3169 3168 3175 3173 3186 3186 3184 3183 3182 3181 3180 3179 3177 3174 3170 3168 3164 3160 3155 3150 3143 3137 3131 3126 3121 3118 3114 3110 3107 3104 3101 3098 3096 3094
3191 3196 3199 3198 3198 3197 3193 3191 3185 3180 3178 3174 3167 3177 3184 3185 3183 3181 3180 3181 3179 3177 3175 3173 3169 3166 3162 3156 3150 3143 3138 3133 3127 3121 3117 3113 3110 3106 3102 3099 3096 3093 3092 3090
3195 3193 3197 3196 3196 3197 3194 3190 3189 3186 3177 3167 3169 3185 3186 3185 3183 3183 3182 3179 3178 3175 3173 3171 3166 3162 3157 3151 3145 3137 3134 3129 3123 3118 3113 3109 3105 3100 3096 3093 3090 3089 3088 3086
3198 3197 3195 3195 3195 3195 3194 3192 3188 3181 3176 3173 3172 3182 3188 3187 3185 3184 3183 3181 3179 3176 3171 3166 3162 3158 3153 3148 3139 3136 3131 3126 3120 3115 3110 3105 3100 3094 3090 3086 3083 3081 3082 3083
3198 3198 3196 3193 3195 3195 3193 3190 3190 3188 3185 3179 3172 3187 3190 3190 3188 3187 3184 3182 3179 3175 3171 3166 3164 3160 3149 3144 3139 3132 3127 3123 3117 3112 3107 3101 3096 3091 3086 3081 3077 3076 3077 3079
3199 3198 3196 3194 3195 3195 3195 3194 3192 3188 3187 3183 3180 3190 3190 3190 3188 3187 3183 3181 3177 3174 3170 3166 3163 3150 3146 3141 3134 3129 3124 3120 3115 3110 3106 3101 3094 3090 3085 3080 3074 3073 3074 3077
3198 3197 3196 3191 3196 3196 3195 3195 3193 3192 3189 3187 3185 3190 3190 3189 3188 3186 3185 3179 3174 3170 3167 3159 3156 3146 3142 3137 3132 3127 3123 3119 3115 3111 3106 3100 3094 3089 3085 3080 3075 3074 3075 3076
3198 3198 3197 3193 3195 3195 3195 3196 3194 3193 3189 3188 3191 3192 3189 3190 3189 3186 3182 3177 3175 3170 3163 3157 3148 3144 3139 3134 3130 3126 3123 3120 3116 3112 3108 3102 3096 3091 3088 3083 3079 3077 3077 3077
3198 3197 3197 3197 3196 3196 3196 3196 3196 3195 3195 3193 3192 3190 3190 3188 3188 3185 3181 3177 3173 3166 3161 3151 3147 3142 3138 3134 3130 3127 3124 3122 3118 3114 3110 3104 3099 3095 3090 3087 3084 3082 3080 3080
3199 3197 3197 3196 3197 3197 3197 3197 3197 3196 3195 3193 3192 3191 3188 3188 3186 3182 3179 3174 3172 3167 3156 3149 3146 3141 3137 3134 3131 3129 3126 3123 3120 3117 3114 3109 3105 3100 3096 3092 3090 3087 3085 3083
3199 3198 3196 3196 3195 3196 3198 3198 3197 3196 3195 3194 3192 3192 3190 3186 3181 3178 3173 3171 3169 3159 3154 3149 3146 3141 3138 3135 3133 3131 3128 3126 3123 3120 3117 3113 3110 3106 3103 3099 3096 3093 3091 3089
3199 3199 3196 3193 3195 3195 3199 3198 3198 3197 3194 3193 3192 3190 3188 3185 3181 3176 3172 3168 3164 3157 3152 3149 3145 3142 3139 3137 3135 3133 3130 3128 3126 3123 3120 3117 3114 3111 3108 3105 3103 3101 3098 3096
3198 3197 3196 3196 3194 3197 3198 3198 3197 3195 3195 3192 3190 3188 3186 3182 3177 3170 3167 3163 3160 3155 3152 3149 3146 3143 3141 3138 3136 3134 3133 3130 3128 3126 3124 3120 3119 3115 3113 3111 3109 3107 3105 3102
3198 3197 3197 3196 3194 3192 3199 3198 3195 3193 3192 3189 3188 3186 3183 3179 3178 3168 3165 3159 3157 3154 3151 3149 3146 3143 3142 3140 3138 3136 3134 3132 3130 3129 3127 3125 3124 3123 3120 3117 3114 3113 3111 3109
3195 3195 3197 3196 3196 3197 3198 3197 3194 3194 3196 3189 3185 3183 3180 3178 3173 3168 3161 3159 3156 3153 3150 3149 3147 3145 3143 3141 3140 3138 3136 3135 3133 3132 3131 3130 3129 3127 3125 3123 3121 3119 3117 3115
3196 3196 3195 3196 3194 3197 3196 3197 3196 3195 3190 3186 3183 3179 3176 3171 3168 3162 3160 3157 3154 3152 3150 3149 3148 3146 3144 3143 3142 3140 3139 3138 3137 3136 3136 3135 3134 3133 3131 3129 3126 3124 3122 3121
3197 3200 3201 3202 3201 3198 3196 3194 3191 3189 3188 3184 3180 3176 3172 3169 3165 3161 3158 3156 3154 3152 3151 3149 3149 3147 3146 3145 3144 3143 3142 3141 3141 3141 3140 3140 3139 3138 3135 3133 3131 3130 3128 3126
3198 3200 3202 3202 3202 3199 3196 3193 3190 3187 3185 3181 3178 3174 3171 3168 3164 3161 3158 3156 3154 3153 3151 3150 3150 3149 3148 3147 3146 3146 3146 3146 3146 3145 3146 3144 3143 3141 3139 3138 3135 3133 3131 3128
3202 3203 3203 3200 3200 3199 3195 3193 3189 3186 3183 3180 3177 3173 3170 3166 3163 3161 3158 3156 3154 3153 3152 3152 3151 3151 3151 3150 3150 3150 3150 3150 3150 3150 3150 3148 3147 3145 3142 3141 3138 3135 3133 3132
3202 3201 3201 3201 3199 3199 3196 3191 3188 3186 3183 3180 3176 3172 3169 3166 3164 3162 3159 3157 3156 3155 3154 3154 3153 3153 3153 3153 3154 3154 3154 3154 3153 3152 3152 3151 3149 3147 3147 3143 3141 3139 3137 3135
Wind_Speed
6 10 6 3 4 4 6 12 7 2 1 4 4 3 4 5 8 9 10 7 7 8 12 12 14 15 20 23 24 24 26 27 28 31 33 33 33 33 29 34 33 36 31 31
8 8 2 2 4 6 8 11 11 1 2 11 10 10 7 9 7 13 8 7 9 13 15 15 17 21 22 22 23 25 26 28 29 32 36 37 36 33 29 27 31 34 35 32
1 7 2 3 4 8 3 13 14 11 14 14 9 18 14 12 12 10 8 5 1 5 10 6 17 19 16 19 22 25 28 31 36 35 36 38 32 23 28 29 28 28 32 30
2 2 2 4 2 9 9 8 13 14 15 21 14 21 19 10 6 5 5 5 5 10 12 12 9 10 13 19 22 27 32 35 34 34 34 34 29 28 28 27 31 28 27 26
2 2 3 5 6 10 12 15 15 18 20 23 5 3 5 7 2 9 5 14 10 13 15 11 7 14 24 15 15 27 33 36 34 37 34 30 28 25 25 23 23 25 25 26
4 2 2 7 8 7 11 15 21 24 15 10 5 6 16 11 15 4 9 9 11 18 22 21 19 13 14 19 31 26 27 34 38 37 32 29 23 19 19 20 22 21 21 17
5 3 2 3 12 10 12 22 22 18 8 11 7 5 11 11 10 5 5 13 14 17 20 14 16 9 20 29 36 30 34 35 38 33 26 21 19 20 19 18 21 21 21 18
11 6 4 5 7 12 21 11 15 14 15 20 16 7 3 8 7 11 12 10 14 15 18 15 16 18 26 35 31 36 36 39 33 28 19 19 20 20 20 21 21 21 18 18
10 4 6 3 8 13 15 16 20 16 22 22 12 11 12 12 11 11 9 10 14 15 11 13 23 29 29 31 24 36 37 33 28 21 19 20 21 25 27 26 25 20 17 14
10 15 4 7 10 4 14 16 15 12 7 9 22 11 10 13 14 10 5 7 9 12 15 24 30 29 23 22 33 35 31 26 21 22 21 23 22 19 18 19 15 17 15 11
8 10 8 10 5 13 15 9 8 7 8 9 9 9 9 11 12 11 9 8 9 12 12 21 20 20 28 32 30 29 27 22 19 21 23 20 19 20 17 19 14 10 9 8
6 7 11 8 5 5 6 8 8 11 8 10 16 6 8 9 8 11 10 13 10 11 12 19 17 29 30 27 26 25 23 18 18 20 16 18 19 19 17 19 11 4 6 10
5 2 13 6 3 1 4 8 8 6 8 6 14 7 5 7 10 13 8 14 15 24 17 21 18 29 27 24 22 21 18 16 17 16 17 25 21 18 18 19 15 8 5 3
3 4 5 10 6 2 2 6 9 8 11 13 6 8 6 9 13 11 12 15 15 15 19 20 27 27 25 22 20 14 13 15 15 18 22 25 23 17 18 20 20 14 10 7
4 1 1 1 2 2 2 4 7 8 8 7 12 7 8 10 11 11 10 13 14 19 18 26 26 24 21 18 12 11 13 14 17 20 18 24 24 24 21 17 16 18 14 11
5 1 3 3 1 1 1 4 7 8 10 9 11 9 5 11 10 11 10 11 14 16 24 25 23 18 16 10 9 12 13 13 17 18 21 23 28 30 26 23 21 20 17 15
3 0 5 9 0 2 1 5 7 8 10 10 10 11 12 12 15 13 16 15 14 24 22 22 17 14 9 7 9 12 12 12 15 16 17 25 24 21 22 21 22 21 23 23
1 2 3 3 3 1 3 3 7 9 7 7 8 11 11 11 11 9 7 13 15 21 18 14 13 9 7 7 10 11 11 12 14 17 17 21 18 18 19 18 21 21 22 22
3 5 1 4 2 2 3 6 9 11 6 5 11 11 13 14 11 21 20 26 26 18 13 13 9 7 7 8 8 10 11 11 12 14 15 18 20 21 19 18 18 21 23 22
1 1 1 3 3 4 4 8 11 8 6 7 13 11 12 11 12 14 8 28 18 14 10 10 7 5 7 8 7 9 10 10 10 13 16 20 16 24 27 25 21 25 27 30
4 1 3 3 1 4 3 13 11 6 5 14 12 10 10 7 13 14 19 14 13 8 10 7 5 7 8 7 7 10 10 11 14 16 17 21 24 21 18 20 20 23 23 22
4 4 5 3 3 3 11 8 9 9 11 9 10 12 8 11 6 14 13 14 8 6 8 5 5 6 8 7 8 10 10 12 16 18 20 20 18 20 19 17 16 18 21 20
4 4 4 4 5 8 13 12 14 8 5 11 14 17 15 7 10 14 12 10 7 5 5 2 4 6 7 7 8 10 11 15 19 19 20 19 19 16 14 14 15 14 15 14
8 7 3 4 6 8 7 10 7 8 12 16 17 18 11 6 12 10 9 9 6 6 3 2 5 6 6 8 8 11 18 16 16 15 16 18 13 12 12 10 13 13 14 11
6 6 5 4 7 8 8 9 8 12 15 16 17 16 12 11 10 10 8 6 5 2 3 4 5 5 7 10 13 15 12 15 17 17 15 12 14 14 15 15 13 13 12 11
7 2 3 5 9 8 10 10 11 12 15 16 18 16 12 11 9 8 7 4 4 2 4 3 4 6 10 11 13 14 13 14 12 10 13 15 12 14 16 14 14 14 13 12
Wind_Direction
203 194 226 66 35 339 330 321 302 101 114 332 268 190 188 195 236 262 271 269 271 274 280 287 299 302 309 312 320 318 315 314 314 313 312 313 314 312 308 303 305 302 297 295
199 128 159 355 340 305 298 306 6 273 341 313 253 228 226 207 177 250 245 275 314 304 307 304 308 307 305 313 307 316 320 318 317 316 313 311 314 312 314 313 312 304 307 308
348 133 163 296 298 312 357 323 341 328 310 279 247 241 239 193 215 236 230 281 279 313 304 304 308 314 322 323 318 314 316 320 317 316 314 310 311 310 291 293 298 294 303 306
131 215 259 272 333 327 334 319 318 303 293 297 255 290 179 208 201 221 236 266 211 285 273 308 349 330 322 313 316 315 320 320 314 316 316 313 310 307 308 306 305 312 315 310
132 180 259 268 331 327 328 323 309 298 279 296 317 2 111 109 249 327 247 262 282 265 278 287 242 307 335 336 326 317 326 326 321 318 318 317 314 313 312 315 318 315 315 321
156 211 273 323 307 309 320 319 296 286 285 268 162 261 49 38 20 8 285 293 260 271 288 290 323 343 315 308 314 317 325 319 323 320 325 324 327 322 320 313 309 309 316 323
250 187 266 332 320 306 318 326 319 315 324 312 218 303 54 28 24 41 276 300 297 307 323 343 8 353 311 320 320 315 314 319 324 327 327 324 322 314 305 300 299 298 305 304
254 203 293 323 338 321 313 324 304 328 313 308 312 50 84 35 33 350 330 318 309 319 331 360 315 310 315 319 317 314 319 329 329 332 328 316 310 302 296 289 291 293 292 289
311 42 295 315 326 328 329 327 312 292 282 279 124 94 81 16 16 2 333 323 330 334 356 315 329 331 322 323 319 315 326 327 333 333 324 310 302 297 291 286 282 283 279 284
303 301 269 302 331 277 334 322 332 327 305 321 90 74 32 12 8 349 336 337 344 348 308 325 328 331 346 317 311 320 323 331 331 324 317 315 322 322 318 308 305 274 260 263
297 288 292 310 10 337 339 353 338 305 332 317 323 76 25 10 354 349 346 357 340 323 340 339 351 320 296 312 320 326 326 326 325 326 331 339 334 336 333 329 323 299 238 245
314 294 293 311 330 341 7 3 354 340 329 350 299 67 27 0 351 358 331 322 335 345 338 329 337 303 317 327 327 326 333 337 336 347 359 357 338 346 348 349 354 343 200 209
325 337 305 205 195 66 24 13 5 328 299 323 337 59 351 1 354 332 321 315 309 316 339 312 319 319 337 336 336 338 347 358 2 2 7 8 10 16 12 13 28 47 122 186
335 328 296 334 30 337 14 4 7 8 355 337 35 345 23 352 341 339 331 307 334 328 322 321 324 336 339 340 343 354 4 10 13 23 17 18 24 24 21 34 43 56 64 74
347 286 303 16 53 75 63 14 18 18 6 351 341 349 341 336 329 323 315 335 326 325 324 321 336 341 341 347 357 14 19 21 31 26 27 34 37 39 38 42 42 55 58 60
359 281 249 184 95 97 77 32 9 356 345 333 334 349 346 324 332 311 323 314 336 318 313 326 337 345 350 8 16 25 29 39 36 44 41 41 41 43 47 51 50 59 53 59
315 267 282 191 129 239 147 5 349 343 337 341 339 328 328 330 326 308 309 334 336 309 319 335 346 353 12 17 29 32 35 39 46 37 45 36 31 35 38 47 52 66 66 63
270 278 289 1 289 214 96 358 2 344 335 336 342 321 323 321 310 301 289 300 313 321 327 339 353 359 13 33 36 39 41 49 53 46 44 45 42 37 44 56 68 68 66 69
251 289 305 303 216 106 113 360 347 336 324 322 343 332 319 317 305 281 289 306 322 323 337 348 2 359 28 42 35 43 46 43 60 53 55 49 42 51 52 66 65 68 63 60
255 189 19 335 290 39 54 351 335 334 246 317 335 326 319 320 335 310 313 302 317 331 331 353 12 15 39 40 37 46 42 51 66 64 60 58 46 56 57 62 73 69 65 66
172 191 344 34 277 115 346 342 343 325 328 323 328 328 329 321 287 277 290 317 326 333 336 6 40 26 42 44 57 67 57 60 75 75 76 75 68 61 53 45 54 60 56 46
59 335 43 299 294 87 341 345 354 308 321 334 327 330 317 323 307 305 323 322 330 344 341 20 56 43 39 54 72 69 63 75 83 86 77 74 61 63 64 58 59 63 59 54
79 49 14 26 9 328 325 334 332 340 332 327 328 329 333 328 321 333 325 337 345 338 339 25 66 51 41 63 72 63 74 86 92 87 74 72 71 66 54 51 60 66 77 70
64 47 39 312 11 335 344 348 355 342 334 334 337 340 343 324 334 339 347 344 339 331 343 77 60 59 47 71 70 80 97 84 86 83 79 74 66 57 42 37 38 45 57 90
38 11 354 143 27 358 4 334 336 339 340 342 343 342 340 333 349 348 351 354 339 58 48 86 68 68 92 100 91 93 88 90 85 83 80 69 47 32 38 36 33 39 44 57
27 307 16 40 1 12 333 342 346 344 341 340 341 344 344 340 348 346 14 27 61 46 64 91 89 108 122 116 99 92 94 103 91 83 69 53 59 30 21 30 44 43 47 55